| time (UTC) | temp F | wind direction | speed MPH | gust MPH | rain 1hr in | rain 24hr in | rain mn in | humidity % | barometer mb |
| 20260509131332 | 62 | 198 | 3.0 | 5.0 | 0.00 | 0.00 | 0.00 | 85 | 1014.2 |
| 20260509130849 | 61 | 177 | 3.0 | 5.0 | 0.00 | 0.00 | 0.00 | 84 | 1014.3 |
| 20260509130350 | 61 | 173 | 2.0 | 4.0 | 0.00 | 0.00 | 0.00 | 86 | 1014.2 |
| 20260509125844 | 60 | 118 | 2.0 | 4.0 | 0.00 | 0.00 | 0.00 | 86 | 1014.0 |
| 20260509125344 | 60 | 171 | 1.0 | 4.0 | 0.00 | 0.00 | 0.00 | 87 | 1014.4 |
| 20260509124843 | 60 | 221 | 1.0 | 5.0 | 0.00 | 0.00 | 0.00 | 87 | 1014.4 |
| 20260509124403 | 60 | 221 | 0.0 | 3.0 | 0.00 | 0.00 | 0.00 | 88 | 1014.5 |
| 20260509123839 | 59 | 221 | 0.0 | 2.0 | 0.00 | 0.00 | 0.00 | 87 | 1014.5 |
| 20260509123358 | 59 | 221 | 0.0 | 2.0 | 0.00 | 0.00 | 0.00 | 88 | 1014.4 |
| 20260509122837 | 59 | 221 | 0.0 | 2.0 | 0.00 | 0.00 | 0.00 | 89 | 1014.4 |
| 20260509122337 | 58 | 218 | 0.0 | 1.0 | 0.00 | 0.00 | 0.00 | 90 | 1014.3 |
| 20260509121833 | 58 | 218 | 0.0 | 2.0 | 0.00 | 0.00 | 0.00 | 90 | 1014.2 |
| 20260509121352 | 57 | 218 | 1.0 | 2.0 | 0.00 | 0.00 | 0.00 | 90 | 1014.3 |
| 20260509120847 | 57 | 218 | 1.0 | 2.0 | 0.00 | 0.00 | 0.00 | 90 | 1014.3 |
| 20260509120347 | 57 | 218 | 0.0 | 3.0 | 0.00 | 0.00 | 0.00 | 90 | 1014.2 |
| 20260509115857 | 56 | 126 | 0.0 | 3.0 | 0.00 | 0.00 | 0.00 | 91 | 1014.1 |
| 20260509115336 | 56 | 126 | 2.0 | 3.0 | 0.00 | 0.00 | 0.00 | 91 | 1014.0 |
| 20260509114834 | 56 | 126 | 1.0 | 2.0 | 0.00 | 0.00 | 0.00 | 91 | 1014.2 |
| 20260509114335 | 56 | 126 | 0.0 | 2.0 | 0.00 | 0.00 | 0.00 | 91 | 1014.1 |
| 20260509113834 | 56 | 126 | 0.0 | 1.0 | 0.00 | 0.00 | 0.00 | 92 | 1014.1 |
| 20260509113335 | 55 | 126 | 0.0 | 1.0 | 0.00 | 0.00 | 0.00 | 92 | 1014.1 |
| 20260509112850 | 55 | 126 | 0.0 | 1.0 | 0.00 | 0.00 | 0.00 | 92 | 1014.1 |
| 20260509112349 | 55 | 126 | 0.0 | 1.0 | 0.00 | 0.00 | 0.00 | 92 | 1014.1 |
| 20260509111848 | 55 | 126 | 0.0 | 0.0 | 0.00 | 0.00 | 0.00 | 92 | 1014.0 |
| 20260509111408 | 55 | 126 | 0.0 | 3.0 | 0.00 | 0.00 | 0.00 | 92 | 1013.8 |
| 20260509110844 | 55 | 126 | 1.0 | 3.0 | 0.00 | 0.00 | 0.00 | 92 | 1013.8 |
| 20260509110349 | 55 | 76 | 1.0 | 2.0 | 0.00 | 0.00 | 0.00 | 92 | 1013.9 |
| 20260509105841 | 55 | 76 | 0.0 | 2.0 | 0.00 | 0.00 | 0.00 | 92 | 1014.0 |
| 20260509105339 | 55 | 76 | 0.0 | 2.0 | 0.00 | 0.00 | 0.00 | 92 | 1013.9 |
| 20260509104838 | 54 | 76 | 0.0 | 2.0 | 0.00 | 0.00 | 0.00 | 92 | 1013.8 |
| 20260509104338 | 54 | 76 | 1.0 | 3.0 | 0.00 | 0.00 | 0.00 | 92 | 1013.8 |
| 20260509103837 | 54 | 76 | 1.0 | 3.0 | 0.00 | 0.00 | 0.00 | 93 | 1013.8 |
| 20260509103338 | 54 | 77 | 0.0 | 0.0 | 0.00 | 0.00 | 0.00 | 93 | 1013.8 |
| 20260509102833 | 54 | 78 | 0.0 | 0.0 | 0.00 | 0.00 | 0.00 | 93 | 1013.7 |
| 20260509102354 | 54 | 77 | 0.0 | 0.0 | 0.00 | 0.00 | 0.00 | 93 | 1013.6 |
| 20260509101829 | 54 | 77 | 0.0 | 0.0 | 0.00 | 0.00 | 0.00 | 93 | 1013.6 |
| 20260509101330 | 54 | 78 | 0.0 | 0.0 | 0.00 | 0.00 | 0.00 | 93 | 1013.6 |
| 20260509100848 | 54 | 78 | 0.0 | 0.0 | 0.00 | 0.00 | 0.00 | 93 | 1013.8 |
| 20260509100409 | 54 | 77 | 0.0 | 1.0 | 0.00 | 0.00 | 0.00 | 93 | 1013.8 |
| 20260509095843 | 54 | 77 | 0.0 | 1.0 | 0.00 | 0.00 | 0.00 | 93 | 1013.8 |
| 20260509095344 | 54 | 77 | 0.0 | 1.0 | 0.00 | 0.00 | 0.00 | 93 | 1013.5 |
| 20260509094901 | 54 | 77 | 0.0 | 1.0 | 0.00 | 0.00 | 0.00 | 92 | 1013.5 |
| 20260509094339 | 54 | 77 | 0.0 | 1.0 | 0.00 | 0.00 | 0.00 | 92 | 1013.7 |
| 20260509093841 | 54 | 77 | 0.0 | 2.0 | 0.00 | 0.00 | 0.00 | 91 | 1013.6 |
| 20260509093343 | 54 | 77 | 1.0 | 3.0 | 0.00 | 0.00 | 0.00 | 91 | 1013.4 |
| 20260509092836 | 54 | 78 | 1.0 | 4.0 | 0.00 | 0.00 | 0.00 | 90 | 1013.3 |
| 20260509091904 | 54 | 155 | 0.0 | 1.0 | 0.00 | 0.00 | 0.00 | 91 | 1013.7 |
| 20260509091339 | 54 | 155 | 0.0 | 1.0 | 0.00 | 0.00 | 0.00 | 91 | 1013.8 |
| 20260509090855 | 54 | 155 | 0.0 | 2.0 | 0.00 | 0.00 | 0.00 | 91 | 1013.7 |
| 20260509090355 | 54 | 155 | 1.0 | 4.0 | 0.00 | 0.00 | 0.00 | 91 | 1013.7 |
| 20260509085848 | 54 | 127 | 2.0 | 4.0 | 0.00 | 0.00 | 0.00 | 91 | 1013.8 |
| 20260509085348 | 54 | 159 | 0.0 | 6.0 | 0.00 | 0.00 | 0.00 | 91 | 1014.0 |
| 20260509084907 | 54 | 221 | 1.0 | 6.0 | 0.00 | 0.00 | 0.00 | 91 | 1013.8 |
| 20260509084346 | 54 | 205 | 0.0 | 1.0 | 0.00 | 0.00 | 0.00 | 91 | 1014.1 |
| 20260509083841 | 54 | 205 | 0.0 | 1.0 | 0.00 | 0.00 | 0.00 | 91 | 1014.2 |
| 20260509083341 | 54 | 205 | 0.0 | 3.0 | 0.00 | 0.00 | 0.00 | 92 | 1014.4 |
| 20260509082837 | 54 | 205 | 1.0 | 3.0 | 0.00 | 0.00 | 0.00 | 92 | 1014.4 |
| 20260509082336 | 54 | 216 | 0.0 | 2.0 | 0.00 | 0.00 | 0.00 | 92 | 1014.3 |
| 20260509081854 | 53 | 216 | 0.0 | 2.0 | 0.00 | 0.00 | 0.00 | 92 | 1014.0 |
| 20260509081334 | 53 | 216 | 1.0 | 2.0 | 0.00 | 0.00 | 0.00 | 92 | 1014.0 |
| 20260509080848 | 53 | 216 | 1.0 | 2.0 | 0.00 | 0.00 | 0.00 | 92 | 1013.9 |
| 20260509080333 | 53 | 216 | 0.0 | 0.0 | 0.00 | 0.00 | 0.00 | 91 | 1013.9 |
| 20260509075848 | 53 | 216 | 0.0 | 0.0 | 0.00 | 0.00 | 0.00 | 91 | 1014.0 |
| 20260509075347 | 53 | 216 | 0.0 | 0.0 | 0.00 | 0.00 | 0.00 | 91 | 1013.8 |
| 20260509074845 | 53 | 216 | 0.0 | 1.0 | 0.00 | 0.00 | 0.00 | 91 | 1013.7 |
| 20260509074345 | 53 | 216 | 0.0 | 1.0 | 0.00 | 0.00 | 0.00 | 91 | 1013.7 |
| 20260509073843 | 53 | 216 | 0.0 | 1.0 | 0.00 | 0.00 | 0.00 | 91 | 1013.8 |
| 20260509073341 | 53 | 216 | 0.0 | 1.0 | 0.00 | 0.00 | 0.00 | 91 | 1013.8 |
| 20260509072837 | 53 | 216 | 0.0 | 1.0 | 0.00 | 0.00 | 0.00 | 91 | 1013.6 |
| 20260509072336 | 53 | 216 | 0.0 | 1.0 | 0.00 | 0.00 | 0.00 | 91 | 1013.5 |
| 20260509071835 | 53 | 216 | 0.0 | 0.0 | 0.00 | 0.00 | 0.00 | 90 | 1013.2 |
| 20260509071335 | 53 | 216 | 0.0 | 1.0 | 0.00 | 0.00 | 0.00 | 90 | 1013.7 |
| 20260509070833 | 53 | 216 | 0.0 | 2.0 | 0.00 | 0.00 | 0.00 | 90 | 1013.5 |
| 20260509070354 | 54 | 216 | 0.0 | 2.0 | 0.00 | 0.00 | 0.00 | 90 | 1013.5 |
| 20260509065842 | 54 | 216 | 0.0 | 1.0 | 0.00 | 0.00 | 0.00 | 90 | 1013.6 |
| 20260509065343 | 54 | 216 | 0.0 | 1.0 | 0.00 | 0.00 | 0.00 | 89 | 1013.7 |
| 20260509064845 | 54 | 216 | 0.0 | 1.0 | 0.00 | 0.00 | 0.00 | 89 | 1013.8 |
| 20260509064344 | 54 | 216 | 0.0 | 1.0 | 0.00 | 0.00 | 0.00 | 89 | 1014.0 |
| 20260509063843 | 54 | 216 | 0.0 | 1.0 | 0.00 | 0.00 | 0.00 | 89 | 1014.0 |
| 20260509063345 | 54 | 216 | 0.0 | 0.0 | 0.00 | 0.00 | 0.00 | 89 | 1014.0 |
| 20260509062837 | 54 | 216 | 0.0 | 0.0 | 0.00 | 0.00 | 0.00 | 88 | 1014.0 |
| 20260509062357 | 54 | 216 | 0.0 | 0.0 | 0.00 | 0.00 | 0.00 | 88 | 1014.1 |
| 20260509061835 | 54 | 216 | 0.0 | 0.0 | 0.00 | 0.00 | 0.00 | 88 | 1014.3 |
| 20260509061335 | 54 | 216 | 0.0 | 2.0 | 0.00 | 0.00 | 0.00 | 88 | 1014.2 |
| 20260509060832 | 54 | 216 | 0.0 | 2.0 | 0.00 | 0.00 | 0.00 | 88 | 1014.4 |
| 20260509060353 | 54 | 216 | 0.0 | 3.0 | 0.00 | 0.00 | 0.00 | 87 | 1014.4 |
| 20260509055847 | 55 | 216 | 2.0 | 4.0 | 0.00 | 0.00 | 0.00 | 87 | 1014.4 |
| 20260509055345 | 55 | 182 | 2.0 | 4.0 | 0.00 | 0.00 | 0.00 | 87 | 1014.5 |
| 20260509054902 | 55 | 188 | 1.0 | 3.0 | 0.00 | 0.00 | 0.00 | 86 | 1014.6 |
| 20260509054340 | 55 | 231 | 0.0 | 0.0 | 0.00 | 0.00 | 0.00 | 87 | 1014.7 |
| 20260509053838 | 55 | 231 | 0.0 | 0.0 | 0.00 | 0.00 | 0.00 | 86 | 1014.6 |
| 20260509053340 | 55 | 231 | 0.0 | 0.0 | 0.00 | 0.00 | 0.00 | 86 | 1014.7 |
| 20260509052840 | 55 | 231 | 0.0 | 1.0 | 0.00 | 0.00 | 0.00 | 87 | 1014.8 |
| 20260509052340 | 55 | 231 | 0.0 | 1.0 | 0.00 | 0.00 | 0.00 | 86 | 1014.8 |
| 20260509051836 | 55 | 231 | 0.0 | 1.0 | 0.00 | 0.00 | 0.00 | 86 | 1014.8 |
| 20260509051336 | 55 | 231 | 0.0 | 1.0 | 0.00 | 0.00 | 0.00 | 85 | 1014.8 |
| 20260509050831 | 55 | 231 | 1.0 | 2.0 | 0.00 | 0.00 | 0.00 | 86 | 1014.9 |
| 20260509050351 | 56 | 231 | 0.0 | 2.0 | 0.00 | 0.00 | 0.00 | 86 | 1014.9 |
| 20260509045844 | 56 | 231 | 0.0 | 1.0 | 0.00 | 0.00 | 0.00 | 85 | 1015.0 |
| 20260509045343 | 56 | 231 | 0.0 | 1.0 | 0.00 | 0.00 | 0.00 | 84 | 1014.8 |
| 20260509044840 | 56 | 231 | 0.0 | 0.0 | 0.00 | 0.00 | 0.00 | 83 | 1014.8 |
| 20260509044340 | 57 | 231 | 0.0 | 0.0 | 0.00 | 0.00 | 0.00 | 82 | 1014.8 |
| 20260509043838 | 57 | 231 | 0.0 | 0.0 | 0.00 | 0.00 | 0.00 | 81 | 1014.9 |
| 20260509043339 | 57 | 231 | 0.0 | 1.0 | 0.00 | 0.00 | 0.00 | 81 | 1015.1 |
| 20260509042833 | 57 | 231 | 0.0 | 1.0 | 0.00 | 0.00 | 0.00 | 81 | 1015.1 |
| 20260509042333 | 57 | 231 | 0.0 | 2.0 | 0.00 | 0.00 | 0.00 | 81 | 1015.2 |
| 20260509041836 | 57 | 231 | 0.0 | 2.0 | 0.00 | 0.00 | 0.00 | 80 | 1015.3 |
| 20260509041333 | 58 | 199 | 0.0 | 1.0 | 0.00 | 0.00 | 0.00 | 80 | 1015.4 |
| 20260509040833 | 58 | 198 | 0.0 | 2.0 | 0.00 | 0.00 | 0.00 | 80 | 1015.3 |
| 20260509040353 | 58 | 200 | 1.0 | 2.0 | 0.00 | 0.00 | 0.00 | 80 | 1015.3 |
| 20260509035905 | 58 | 211 | 0.0 | 3.0 | 0.00 | 0.00 | 0.00 | 79 | 1015.4 |
| 20260509035344 | 58 | 211 | 1.0 | 3.0 | 0.00 | 0.00 | 0.00 | 79 | 1015.4 |
| 20260509034842 | 58 | 259 | 0.0 | 3.0 | 0.00 | 0.00 | 0.00 | 79 | 1015.3 |
| 20260509034403 | 58 | 259 | 0.0 | 3.0 | 0.00 | 0.00 | 0.00 | 78 | 1015.3 |
| 20260509033837 | 58 | 201 | 0.0 | 4.0 | 0.00 | 0.00 | 0.00 | 77 | 1015.3 |
| 20260509033338 | 59 | 205 | 1.0 | 4.0 | 0.00 | 0.00 | 0.00 | 76 | 1015.4 |
| 20260509032832 | 59 | 302 | 0.0 | 2.0 | 0.00 | 0.00 | 0.00 | 76 | 1015.4 |
| 20260509032351 | 59 | 302 | 1.0 | 2.0 | 0.00 | 0.00 | 0.00 | 76 | 1015.4 |
| 20260509031848 | 59 | 193 | 0.0 | 3.0 | 0.00 | 0.00 | 0.00 | 75 | 1015.5 |
| 20260509031348 | 59 | 193 | 0.0 | 3.0 | 0.00 | 0.00 | 0.00 | 75 | 1015.4 |
| 20260509030843 | 59 | 210 | 1.0 | 3.0 | 0.00 | 0.00 | 0.00 | 75 | 1015.4 |
| 20260509030344 | 59 | 202 | 1.0 | 3.0 | 0.00 | 0.00 | 0.00 | 75 | 1015.5 |
| 20260509025839 | 59 | 188 | 0.0 | 2.0 | 0.00 | 0.00 | 0.00 | 74 | 1015.7 |
| 20260509025336 | 60 | 188 | 1.0 | 4.0 | 0.00 | 0.00 | 0.00 | 74 | 1015.6 |
| 20260509024833 | 60 | 205 | 1.0 | 4.0 | 0.00 | 0.00 | 0.00 | 73 | 1015.6 |
| 20260509024338 | 60 | 195 | 1.0 | 2.0 | 0.00 | 0.00 | 0.00 | 73 | 1015.6 |
| 20260509023836 | 60 | 217 | 0.0 | 3.0 | 0.00 | 0.00 | 0.00 | 72 | 1015.5 |
| 20260509023335 | 61 | 217 | 0.0 | 3.0 | 0.00 | 0.00 | 0.00 | 71 | 1015.8 |
| 20260509022830 | 61 | 217 | 0.0 | 3.0 | 0.00 | 0.00 | 0.00 | 70 | 1015.8 |
| 20260509022329 | 61 | 219 | 0.0 | 3.0 | 0.00 | 0.00 | 0.00 | 70 | 1015.5 |
| 20260509021909 | 61 | 242 | 1.0 | 1.0 | 0.00 | 0.00 | 0.00 | 69 | 1015.5 |
| 20260509021347 | 61 | 242 | 0.0 | 2.0 | 0.00 | 0.00 | 0.00 | 68 | 1015.5 |
| 20260509020846 | 61 | 242 | 1.0 | 3.0 | 0.00 | 0.00 | 0.00 | 68 | 1015.4 |
| 20260509020346 | 61 | 242 | 0.0 | 3.0 | 0.00 | 0.00 | 0.00 | 67 | 1015.4 |
| 20260509015836 | 62 | 220 | 1.0 | 3.0 | 0.00 | 0.00 | 0.00 | 68 | 1015.3 |
| 20260509015336 | 62 | 225 | 1.0 | 1.0 | 0.00 | 0.00 | 0.00 | 67 | 1015.4 |
| 20260509014833 | 62 | 224 | 0.0 | 4.0 | 0.00 | 0.00 | 0.00 | 68 | 1015.2 |
| 20260509014334 | 62 | 223 | 1.0 | 6.0 | 0.00 | 0.00 | 0.00 | 68 | 1015.3 |
| 20260509013832 | 62 | 209 | 2.0 | 6.0 | 0.00 | 0.00 | 0.00 | 68 | 1015.2 |
| 20260509013333 | 62 | 200 | 1.0 | 3.0 | 0.00 | 0.00 | 0.00 | 69 | 1015.2 |
| 20260509012344 | 62 | 189 | 0.0 | 2.0 | 0.00 | 0.00 | 0.00 | 70 | 1015.2 |
| 20260509011840 | 62 | 189 | 0.0 | 1.0 | 0.00 | 0.00 | 0.00 | 69 | 1015.4 |
| 20260509011339 | 62 | 189 | 0.0 | 6.0 | 0.00 | 0.00 | 0.00 | 69 | 1015.2 |
| 20260509010836 | 63 | 189 | 1.0 | 6.0 | 0.00 | 0.00 | 0.00 | 68 | 1015.4 |
| 20260509010337 | 63 | 200 | 1.0 | 3.0 | 0.00 | 0.00 | 0.00 | 67 | 1015.4 |
| 20260509005851 | 63 | 198 | 1.0 | 3.0 | 0.00 | 0.00 | 0.00 | 66 | 1015.2 |
| 20260509005407 | 63 | 196 | 1.0 | 3.0 | 0.00 | 0.00 | 0.00 | 66 | 1015.4 |
| 20260509004844 | 64 | 204 | 1.0 | 3.0 | 0.00 | 0.00 | 0.00 | 65 | 1015.4 |
| 20260509004344 | 64 | 259 | 1.0 | 4.0 | 0.00 | 0.00 | 0.00 | 65 | 1015.3 |
| 20260509003843 | 64 | 200 | 1.0 | 5.0 | 0.00 | 0.00 | 0.00 | 64 | 1015.5 |
| 20260509003344 | 64 | 186 | 1.0 | 5.0 | 0.00 | 0.00 | 0.00 | 63 | 1015.3 |
| 20260509002838 | 65 | 248 | 1.0 | 4.0 | 0.00 | 0.00 | 0.00 | 63 | 1015.3 |
| 20260509002359 | 65 | 167 | 1.0 | 6.0 | 0.00 | 0.00 | 0.00 | 62 | 1015.4 |
| 20260509001854 | 65 | 147 | 3.0 | 6.0 | 0.00 | 0.00 | 0.00 | 61 | 1015.4 |
| 20260509001333 | 65 | 130 | 1.0 | 7.0 | 0.00 | 0.00 | 0.00 | 61 | 1015.3 |
| 20260509000851 | 66 | 175 | 2.0 | 9.0 | 0.00 | 0.00 | 0.00 | 62 | 1015.5 |
| 20260509000410 | 66 | 269 | 2.0 | 9.0 | 0.00 | 0.00 | 0.00 | 61 | 1015.3 |
| 20260508235844 | 66 | 206 | 2.0 | 4.0 | 0.00 | 0.00 | 0.00 | 58 | 1015.4 |
| 20260508235329 | 66 | 216 | 2.0 | 6.0 | 0.00 | 0.00 | 0.00 | 59 | 1015.3 |
| 20260508234845 | 67 | 198 | 2.0 | 6.0 | 0.00 | 0.00 | 0.00 | 56 | 1015.2 |
| 20260508234404 | 67 | 198 | 1.0 | 5.0 | 0.00 | 0.00 | 0.00 | 61 | 1015.2 |
| 20260508233843 | 67 | 172 | 1.0 | 7.0 | 0.00 | 0.00 | 0.00 | 58 | 1015.4 |
| 20260508233343 | 68 | 207 | 2.0 | 7.0 | 0.00 | 0.00 | 0.00 | 56 | 1015.2 |
| 20260508232838 | 68 | 111 | 2.0 | 6.0 | 0.00 | 0.00 | 0.00 | 56 | 1015.1 |
| 20260508232338 | 68 | 136 | 1.0 | 4.0 | 0.00 | 0.00 | 0.00 | 56 | 1015.1 |
| 20260508231836 | 68 | 193 | 1.0 | 10.0 | 0.00 | 0.00 | 0.00 | 55 | 1015.3 |
| 20260508231334 | 68 | 193 | 2.0 | 10.0 | 0.00 | 0.00 | 0.00 | 54 | 1015.2 |
| 20260508230831 | 68 | 183 | 3.0 | 10.0 | 0.00 | 0.00 | 0.00 | 55 | 1015.3 |
| 20260508230333 | 69 | 193 | 4.0 | 11.0 | 0.00 | 0.00 | 0.00 | 57 | 1015.3 |
| 20260508225847 | 69 | 211 | 2.0 | 9.0 | 0.00 | 0.00 | 0.00 | 54 | 1015.4 |
| 20260508225346 | 69 | 161 | 2.0 | 8.0 | 0.00 | 0.00 | 0.00 | 55 | 1015.5 |
| 20260508224844 | 69 | 194 | 3.0 | 8.0 | 0.00 | 0.00 | 0.00 | 53 | 1015.4 |
| 20260508224345 | 70 | 236 | 2.0 | 7.0 | 0.00 | 0.00 | 0.00 | 52 | 1015.4 |
| 20260508223840 | 70 | 130 | 3.0 | 8.0 | 0.00 | 0.00 | 0.00 | 53 | 1015.5 |
| 20260508223345 | 70 | 99 | 3.0 | 6.0 | 0.00 | 0.00 | 0.00 | 53 | 1015.5 |
| 20260508222840 | 70 | 185 | 2.0 | 5.0 | 0.00 | 0.00 | 0.00 | 53 | 1015.5 |
| 20260508222340 | 71 | 202 | 1.0 | 4.0 | 0.00 | 0.00 | 0.00 | 54 | 1015.6 |
| 20260508221836 | 71 | 193 | 0.0 | 4.0 | 0.00 | 0.00 | 0.00 | 53 | 1015.6 |
| 20260508221337 | 71 | 176 | 2.0 | 5.0 | 0.00 | 0.00 | 0.00 | 52 | 1015.6 |
| 20260508220831 | 71 | 221 | 3.0 | 5.0 | 0.00 | 0.00 | 0.00 | 53 | 1015.5 |
| 20260508220352 | 71 | 197 | 3.0 | 5.0 | 0.00 | 0.00 | 0.00 | 49 | 1015.5 |
| 20260508215845 | 72 | 170 | 1.0 | 4.0 | 0.00 | 0.00 | 0.00 | 52 | 1015.5 |
| 20260508215346 | 72 | 169 | 2.0 | 4.0 | 0.00 | 0.00 | 0.00 | 50 | 1015.4 |
| 20260508214845 | 72 | 196 | 2.0 | 3.0 | 0.00 | 0.00 | 0.00 | 47 | 1015.4 |
| 20260508214346 | 72 | 149 | 1.0 | 3.0 | 0.00 | 0.00 | 0.00 | 46 | 1015.5 |
| 20260508213844 | 72 | 196 | 0.0 | 3.0 | 0.00 | 0.00 | 0.00 | 46 | 1015.3 |
| 20260508213341 | 73 | 196 | 1.0 | 3.0 | 0.00 | 0.00 | 0.00 | 44 | 1015.4 |
| 20260508212856 | 72 | 206 | 2.0 | 4.0 | 0.00 | 0.00 | 0.00 | 41 | 1015.3 |
| 20260508212335 | 73 | 54 | 1.0 | 4.0 | 0.00 | 0.00 | 0.00 | 43 | 1015.4 |
| 20260508211837 | 73 | 189 | 2.0 | 4.0 | 0.00 | 0.00 | 0.00 | 42 | 1015.4 |
| 20260508211337 | 73 | 136 | 2.0 | 3.0 | 0.00 | 0.00 | 0.00 | 41 | 1015.5 |
| 20260508210834 | 73 | 136 | 2.0 | 7.0 | 0.00 | 0.00 | 0.00 | 41 | 1015.6 |
| 20260508210354 | 73 | 172 | 4.0 | 7.0 | 0.00 | 0.00 | 0.00 | 42 | 1015.8 |
| 20260508205846 | 73 | 200 | 2.0 | 7.0 | 0.00 | 0.00 | 0.00 | 42 | 1015.8 |
| 20260508205346 | 73 | 223 | 4.0 | 8.0 | 0.00 | 0.00 | 0.00 | 42 | 1015.8 |
| 20260508204905 | 73 | 163 | 1.0 | 6.0 | 0.00 | 0.00 | 0.00 | 41 | 1015.7 |
| 20260508204405 | 73 | 215 | 2.0 | 6.0 | 0.00 | 0.00 | 0.00 | 45 | 1016.0 |
| 20260508203843 | 73 | 178 | 1.0 | 7.0 | 0.00 | 0.00 | 0.00 | 42 | 1015.9 |
| 20260508202854 | 72 | 101 | 3.0 | 7.0 | 0.00 | 0.00 | 0.00 | 45 | 1015.8 |
| 20260508202332 | 72 | 205 | 1.0 | 4.0 | 0.00 | 0.00 | 0.00 | 45 | 1015.8 |
| 20260508201830 | 72 | 206 | 1.0 | 7.0 | 0.00 | 0.00 | 0.00 | 41 | 1015.6 |
| 20260508201329 | 72 | 234 | 3.0 | 7.0 | 0.00 | 0.00 | 0.00 | 45 | 1015.9 |
| 20260508200847 | 72 | 160 | 1.0 | 5.0 | 0.00 | 0.00 | 0.00 | 42 | 1016.0 |
| 20260508200346 | 73 | 182 | 3.0 | 7.0 | 0.00 | 0.00 | 0.00 | 42 | 1016.1 |
| 20260508195838 | 73 | 113 | 3.0 | 7.0 | 0.00 | 0.00 | 0.00 | 43 | 1016.1 |
| 20260508195342 | 73 | 110 | 3.0 | 7.0 | 0.00 | 0.00 | 0.00 | 43 | 1016.2 |
| 20260508194840 | 73 | 173 | 2.0 | 8.0 | 0.00 | 0.00 | 0.00 | 41 | 1016.5 |
| 20260508194340 | 73 | 172 | 4.0 | 8.0 | 0.00 | 0.00 | 0.00 | 44 | 1016.4 |
| 20260508193836 | 72 | 91 | 4.0 | 7.0 | 0.00 | 0.00 | 0.00 | 42 | 1016.3 |
| 20260508193336 | 72 | 108 | 2.0 | 6.0 | 0.00 | 0.00 | 0.00 | 45 | 1016.6 |
| 20260508192832 | 72 | 127 | 2.0 | 5.0 | 0.00 | 0.00 | 0.00 | 45 | 1016.7 |
| 20260508192351 | 71 | 127 | 3.0 | 5.0 | 0.00 | 0.00 | 0.00 | 44 | 1016.6 |
| 20260508191848 | 71 | 194 | 0.0 | 4.0 | 0.00 | 0.00 | 0.00 | 45 | 1016.8 |
| 20260508191347 | 71 | 194 | 2.0 | 6.0 | 0.00 | 0.00 | 0.00 | 45 | 1016.9 |
| 20260508190844 | 71 | 181 | 3.0 | 6.0 | 0.00 | 0.00 | 0.00 | 42 | 1017.1 |
| 20260508190345 | 71 | 196 | 1.0 | 4.0 | 0.00 | 0.00 | 0.00 | 44 | 1017.1 |
| 20260508185840 | 71 | 213 | 2.0 | 6.0 | 0.00 | 0.00 | 0.00 | 44 | 1017.2 |
| 20260508185340 | 71 | 96 | 1.0 | 6.0 | 0.00 | 0.00 | 0.00 | 43 | 1017.1 |
| 20260508184856 | 71 | 281 | 1.0 | 4.0 | 0.00 | 0.00 | 0.00 | 40 | 1017.2 |
| 20260508184335 | 71 | 186 | 1.0 | 5.0 | 0.00 | 0.00 | 0.00 | 45 | 1017.4 |
| 20260508183834 | 71 | 166 | 1.0 | 5.0 | 0.00 | 0.00 | 0.00 | 45 | 1017.6 |
| 20260508183412 | 71 | 160 | 0.0 | 4.0 | 0.00 | 0.00 | 0.00 | 41 | 1017.7 |
| 20260508182845 | 71 | 94 | 3.0 | 6.0 | 0.00 | 0.00 | 0.00 | 41 | 1017.9 |
| 20260508182349 | 70 | 121 | 3.0 | 6.0 | 0.00 | 0.00 | 0.00 | 41 | 1018.0 |
| 20260508181836 | 70 | 142 | 3.0 | 6.0 | 0.00 | 0.00 | 0.00 | 43 | 1018.0 |
| 20260508181336 | 70 | 41 | 1.0 | 5.0 | 0.00 | 0.00 | 0.00 | 42 | 1018.1 |
| 20260508180855 | 70 | 46 | 1.0 | 5.0 | 0.00 | 0.00 | 0.00 | 43 | 1018.1 |
| 20260508180413 | 71 | 185 | 3.0 | 5.0 | 0.00 | 0.00 | 0.00 | 45 | 1018.1 |
| 20260508175905 | 70 | 109 | 3.0 | 6.0 | 0.00 | 0.00 | 0.00 | 42 | 1018.2 |
| 20260508175344 | 70 | 103 | 3.0 | 6.0 | 0.00 | 0.00 | 0.00 | 47 | 1018.1 |
| 20260508174901 | 69 | 167 | 3.0 | 7.0 | 0.00 | 0.00 | 0.00 | 48 | 1018.1 |
| 20260508174336 | 69 | 92 | 2.0 | 5.0 | 0.00 | 0.00 | 0.00 | 48 | 1018.4 |
| 20260508173834 | 69 | 161 | 0.0 | 6.0 | 0.00 | 0.00 | 0.00 | 47 | 1018.5 |
| 20260508173335 | 70 | 309 | 2.0 | 7.0 | 0.00 | 0.00 | 0.00 | 46 | 1018.6 |
| 20260508172831 | 70 | 141 | 4.0 | 7.0 | 0.00 | 0.00 | 0.00 | 46 | 1018.8 |
| 20260508172330 | 70 | 59 | 3.0 | 8.0 | 0.00 | 0.00 | 0.00 | 45 | 1018.7 |
| 20260508171848 | 70 | 119 | 4.0 | 8.0 | 0.00 | 0.00 | 0.00 | 45 | 1018.8 |
| 20260508171348 | 70 | 74 | 3.0 | 5.0 | 0.00 | 0.00 | 0.00 | 48 | 1018.9 |
| 20260508170843 | 69 | 240 | 2.0 | 7.0 | 0.00 | 0.00 | 0.00 | 49 | 1018.8 |
| 20260508170343 | 69 | 17 | 3.0 | 8.0 | 0.00 | 0.00 | 0.00 | 52 | 1018.9 |
| 20260508165838 | 68 | 74 | 2.0 | 7.0 | 0.00 | 0.00 | 0.00 | 49 | 1018.8 |
| 20260508165338 | 68 | 305 | 3.0 | 7.0 | 0.00 | 0.00 | 0.00 | 48 | 1018.8 |
| 20260508164840 | 68 | 204 | 3.0 | 8.0 | 0.00 | 0.00 | 0.00 | 51 | 1019.1 |
| 20260508164340 | 67 | 355 | 1.0 | 5.0 | 0.00 | 0.00 | 0.00 | 48 | 1019.1 |
| 20260508163835 | 68 | 197 | 3.0 | 8.0 | 0.00 | 0.00 | 0.00 | 47 | 1019.3 |
| 20260508163355 | 68 | 199 | 4.0 | 8.0 | 0.00 | 0.00 | 0.00 | 48 | 1019.4 |
| 20260508162848 | 68 | 88 | 2.0 | 7.0 | 0.00 | 0.00 | 0.00 | 47 | 1019.4 |
| 20260508162348 | 68 | 170 | 4.0 | 7.0 | 0.00 | 0.00 | 0.00 | 46 | 1019.6 |
| 20260508161847 | 68 | 159 | 4.0 | 7.0 | 0.00 | 0.00 | 0.00 | 47 | 1019.7 |
| 20260508161348 | 68 | 319 | 2.0 | 7.0 | 0.00 | 0.00 | 0.00 | 45 | 1019.7 |
| 20260508160901 | 67 | 92 | 5.0 | 8.0 | 0.00 | 0.00 | 0.00 | 49 | 1019.7 |
| 20260508160338 | 67 | 88 | 4.0 | 8.0 | 0.00 | 0.00 | 0.00 | 49 | 1019.9 |
| 20260508155830 | 67 | 313 | 2.0 | 4.0 | 0.00 | 0.00 | 0.00 | 49 | 1020.0 |
| 20260508155410 | 68 | 36 | 2.0 | 7.0 | 0.00 | 0.00 | 0.00 | 47 | 1020.1 |
| 20260508154848 | 67 | 92 | 3.0 | 7.0 | 0.00 | 0.00 | 0.00 | 46 | 1020.1 |
| 20260508154347 | 67 | 55 | 2.0 | 6.0 | 0.00 | 0.00 | 0.00 | 51 | 1020.0 |
| 20260508153845 | 66 | 100 | 3.0 | 6.0 | 0.00 | 0.00 | 0.00 | 46 | 1020.0 |
| 20260508153346 | 66 | 26 | 3.0 | 8.0 | 0.00 | 0.00 | 0.00 | 46 | 1020.0 |
| 20260508152900 | 67 | 82 | 5.0 | 8.0 | 0.00 | 0.00 | 0.00 | 42 | 1020.2 |
| 20260508152339 | 67 | 63 | 4.0 | 7.0 | 0.00 | 0.00 | 0.00 | 47 | 1020.3 |
| 20260508151841 | 67 | 34 | 3.0 | 8.0 | 0.00 | 0.00 | 0.00 | 47 | 1020.4 |
| 20260508151341 | 66 | 107 | 3.0 | 8.0 | 0.00 | 0.00 | 0.00 | 51 | 1020.3 |
| 20260508150857 | 65 | 127 | 4.0 | 7.0 | 0.00 | 0.00 | 0.00 | 52 | 1020.5 |
| 20260508150336 | 65 | 118 | 2.0 | 5.0 | 0.00 | 0.00 | 0.00 | 54 | 1020.4 |
| 20260508145830 | 64 | 51 | 3.0 | 6.0 | 0.00 | 0.00 | 0.00 | 57 | 1020.4 |
| 20260508145331 | 65 | 308 | 2.0 | 7.0 | 0.00 | 0.00 | 0.00 | 58 | 1020.4 |
| 20260508144831 | 65 | 93 | 2.0 | 7.0 | 0.00 | 0.00 | 0.00 | 58 | 1020.4 |
| 20260508144331 | 65 | 76 | 1.0 | 5.0 | 0.00 | 0.00 | 0.00 | 52 | 1020.4 |
| 20260508143831 | 64 | 69 | 2.0 | 6.0 | 0.00 | 0.00 | 0.00 | 52 | 1020.5 |
| 20260508143351 | 64 | 78 | 3.0 | 5.0 | 0.00 | 0.00 | 0.00 | 55 | 1020.5 |
| 20260508142846 | 64 | 315 | 2.0 | 8.0 | 0.00 | 0.00 | 0.00 | 56 | 1020.6 |
| 20260508142344 | 64 | 348 | 3.0 | 8.0 | 0.00 | 0.00 | 0.00 | 54 | 1020.6 |
| 20260508141843 | 64 | 133 | 4.0 | 8.0 | 0.00 | 0.00 | 0.00 | 54 | 1020.5 |
| 20260508141342 | 64 | 91 | 1.0 | 5.0 | 0.00 | 0.00 | 0.00 | 55 | 1020.6 |
| 20260508140901 | 63 | 79 | 3.0 | 5.0 | 0.00 | 0.00 | 0.00 | 55 | 1020.6 |
| 20260508140339 | 63 | 17 | 1.0 | 5.0 | 0.00 | 0.00 | 0.00 | 55 | 1020.6 |
| 20260508135855 | 62 | 11 | 2.0 | 5.0 | 0.00 | 0.00 | 0.00 | 59 | 1020.6 |
| 20260508135338 | 62 | 81 | 1.0 | 6.0 | 0.00 | 0.00 | 0.00 | 60 | 1020.5 |
| 20260508134835 | 62 | 48 | 2.0 | 8.0 | 0.00 | 0.00 | 0.00 | 57 | 1020.5 |
| 20260508134337 | 62 | 45 | 3.0 | 8.0 | 0.00 | 0.00 | 0.00 | 59 | 1020.4 |
| 20260508133832 | 62 | 332 | 2.0 | 5.0 | 0.00 | 0.00 | 0.00 | 63 | 1020.4 |
| 20260508133413 | 62 | 59 | 3.0 | 5.0 | 0.00 | 0.00 | 0.00 | 59 | 1020.4 |
| 20260508132847 | 62 | 48 | 1.0 | 4.0 | 0.00 | 0.00 | 0.00 | 61 | 1020.3 |
| 20260508132348 | 62 | 94 | 3.0 | 4.0 | 0.00 | 0.00 | 0.00 | 59 | 1020.4 |
| 20260508131844 | 62 | 22 | 2.0 | 4.0 | 0.00 | 0.00 | 0.00 | 63 | 1020.4 |